• en Belgique
  • Liste des pays
  • À 7 jours
  • Température de l'eau
  • Carte satellitaire
  • Carte météo
  • Widgets météo
  • user-avatar
    Se connecter

    Météo par heure à Hobart

    Ce jour, 13 Décembre, Mercredi

    Heure Température Précipitation Vent Pression Humidité
    00:00 +13°C° 0 mm 2 m/s 747 mmHg 93%
    01:00 +12°C° 0 mm 3 m/s 746 mmHg 94%
    02:00 +12°C° 0 mm 3 m/s 746 mmHg 95%
    03:00 +12°C° 0 mm 3 m/s 745 mmHg 95%
    04:00 +12°C° 0 mm 3 m/s 744 mmHg 95%
    05:00 +14°C° 0 mm 3 m/s 744 mmHg 84%
    06:00 +17°C° 0 mm 3 m/s 744 mmHg 72%
    07:00 +20°C° 0 mm 3 m/s 744 mmHg 61%
    08:00 +22°C° 0 mm 3 m/s 744 mmHg 50%
    09:00 +26°C° 0 mm 3 m/s 743 mmHg 39%
    10:00 +26°C° 0 mm 3 m/s 743 mmHg 35%
    11:00 +28°C° 0 mm 3 m/s 743 mmHg 30%
    12:00 +30°C° 0 mm 3 m/s 742 mmHg 25%
    13:00 +31°C° 0 mm 2 m/s 742 mmHg 20%
    14:00 +33°C° 0 mm 3 m/s 741 mmHg 21%
    15:00 +33°C° 0 mm 3 m/s 741 mmHg 21%
    16:00 +33°C° 0 mm 4 m/s 740 mmHg 22%
    17:00 +30°C° 0 mm 3 m/s 740 mmHg 31%
    18:00 +27°C° 0 mm 3 m/s 739 mmHg 41%
    19:00 +25°C° 0 mm 2 m/s 739 mmHg 51%
    20:00 +24°C° 0 mm 2 m/s 739 mmHg 52%
    21:00 +22°C° 0 mm 3 m/s 738 mmHg 53%
    22:00 +21°C° 0 mm 3 m/s 738 mmHg 54%
    23:00 +21°C° 0 mm 3 m/s 737 mmHg 54%

    Demain, 14 Décembre, Jeudi

    Heure Température Précipitation Vent Pression Humidité
    00:00 +20°C° 0 mm 2 m/s 737 mmHg 54%
    01:00 +20°C° 0 mm 2 m/s 737 mmHg 53%
    02:00 +19°C° 0,1 mm 2 m/s 736 mmHg 60%
    03:00 +19°C° 0,1 mm 2 m/s 736 mmHg 67%
    04:00 +19°C° 0,1 mm 1 m/s 735 mmHg 74%
    05:00 +18°C° 0 mm 2 m/s 735 mmHg 74%
    06:00 +19°C° 0 mm 2 m/s 735 mmHg 73%
    07:00 +19°C° 0 mm 2 m/s 735 mmHg 73%
    08:00 +20°C° 0,1 mm 3 m/s 735 mmHg 73%
    09:00 +20°C° 0,1 mm 3 m/s 736 mmHg 73%
    10:00 +20°C° 0,1 mm 4 m/s 736 mmHg 73%
    11:00 +20°C° 0,1 mm 5 m/s 736 mmHg 67%
    12:00 +20°C° 0,1 mm 5 m/s 737 mmHg 61%
    13:00 +20°C° 0,1 mm 6 m/s 737 mmHg 55%
    14:00 +20°C° 0 mm 6 m/s 737 mmHg 52%
    15:00 +19°C° 0 mm 6 m/s 737 mmHg 49%
    16:00 +18°C° 0 mm 7 m/s 738 mmHg 46%
    17:00 +17°C° 0 mm 6 m/s 738 mmHg 54%
    18:00 +15°C° 0 mm 6 m/s 739 mmHg 61%
    19:00 +14°C° 0 mm 5 m/s 740 mmHg 69%
    20:00 +13°C° 0,1 mm 5 m/s 741 mmHg 74%
    21:00 +12°C° 0,1 mm 4 m/s 742 mmHg 80%
    22:00 +11°C° 0,1 mm 4 m/s 743 mmHg 85%
    23:00 +10°C° 0 mm 3 m/s 743 mmHg 87%

    Après-demain, 15 Décembre, Vendredi

    Heure Température Précipitation Vent Pression Humidité
    00:00 +9°C° 0 mm 3 m/s 743 mmHg 89%
    01:00 +8°C° 0 mm 3 m/s 744 mmHg 91%
    02:00 +8°C° 0 mm 3 m/s 744 mmHg 91%
    03:00 +7°C° 0 mm 2 m/s 744 mmHg 92%
    04:00 +7°C° 0 mm 2 m/s 744 mmHg 92%
    05:00 +9°C° 0 mm 2 m/s 744 mmHg 84%
    06:00 +10°C° 0 mm 2 m/s 745 mmHg 75%
    07:00 +13°C° 0 mm 2 m/s 745 mmHg 66%
    08:00 +15°C° 0 mm 2 m/s 745 mmHg 56%
    09:00 +18°C° 0 mm 2 m/s 744 mmHg 47%
    10:00 +20°C° 0 mm 2 m/s 744 mmHg 38%
    11:00 +22°C° 0 mm 3 m/s 744 mmHg 34%
    12:00 +25°C° 0 mm 3 m/s 744 mmHg 29%
    13:00 +26°C° 0 mm 4 m/s 743 mmHg 25%
    14:00 +26°C° 0 mm 4 m/s 743 mmHg 27%
    15:00 +26°C° 0 mm 4 m/s 742 mmHg 29%
    16:00 +26°C° 0 mm 4 m/s 742 mmHg 31%
    17:00 +24°C° 0 mm 3 m/s 742 mmHg 39%
    18:00 +21°C° 0 mm 3 m/s 742 mmHg 47%
    19:00 +19°C° 0 mm 2 m/s 742 mmHg 55%
    20:00 +17°C° 0 mm 2 m/s 743 mmHg 65%
    21:00 +14°C° 0 mm 2 m/s 743 mmHg 75%
    22:00 +12°C° 0 mm 2 m/s 743 mmHg 84%
    23:00 +10°C° 0 mm 2 m/s 743 mmHg 87%

    16 Décembre, Samedi

    Heure Température Précipitation Vent Pression Humidité
    00:00 +10°C° 0 mm 2 m/s 743 mmHg 90%
    01:00 +9°C° 0 mm 2 m/s 743 mmHg 93%
    02:00 +10°C° 0 mm 2 m/s 743 mmHg 90%
    03:00 +10°C° 0 mm 2 m/s 743 mmHg 88%
    04:00 +10°C° 0 mm 2 m/s 743 mmHg 86%
    05:00 +12°C° 0 mm 3 m/s 743 mmHg 79%
    06:00 +14°C° 0 mm 4 m/s 744 mmHg 72%
    07:00 +17°C° 0 mm 4 m/s 744 mmHg 66%
    08:00 +18°C° 0 mm 4 m/s 744 mmHg 62%
    09:00 +19°C° 0 mm 5 m/s 745 mmHg 59%
    10:00 +20°C° 0 mm 5 m/s 745 mmHg 55%
    11:00 +20°C° 0 mm 4 m/s 745 mmHg 57%
    12:00 +20°C° 0 mm 4 m/s 745 mmHg 60%
    13:00 +20°C° 0 mm 4 m/s 745 mmHg 62%
    14:00 +20°C° 0,1 mm 4 m/s 746 mmHg 64%
    15:00 +19°C° 0,1 mm 3 m/s 746 mmHg 66%
    16:00 +19°C° 0,1 mm 3 m/s 746 mmHg 67%
    17:00 +18°C° 0,1 mm 3 m/s 747 mmHg 71%
    18:00 +18°C° 0,1 mm 3 m/s 747 mmHg 75%
    19:00 +17°C° 0,1 mm 2 m/s 748 mmHg 79%
    20:00 +15°C° 0 mm 2 m/s 748 mmHg 85%
    21:00 +13°C° 0 mm 2 m/s 749 mmHg 91%
    22:00 +12°C° 0 mm 1 m/s 749 mmHg 97%
    23:00 +11°C° 0 mm 1 m/s 749 mmHg 98%

    17 Décembre, Dimanche

    Heure Température Précipitation Vent Pression Humidité
    00:00 +11°C° 0 mm 1 m/s 749 mmHg 98%
    01:00 +10°C° 0 mm 1 m/s 749 mmHg 98%
    02:00 +10°C° 0 mm 1 m/s 749 mmHg 98%
    03:00 +10°C° 0 mm 1 m/s 749 mmHg 98%
    04:00 +10°C° 0 mm 1 m/s 749 mmHg 98%
    05:00 +12°C° 0 mm 1 m/s 750 mmHg 93%
    06:00 +13°C° 0 mm 1 m/s 750 mmHg 88%
    07:00 +14°C° 0 mm 1 m/s 750 mmHg 84%
    08:00 +16°C° 0 mm 1 m/s 750 mmHg 78%
    09:00 +17°C° 0 mm 2 m/s 751 mmHg 72%
    10:00 +18°C° 0 mm 2 m/s 751 mmHg 66%
    11:00 +19°C° 0 mm 2 m/s 750 mmHg 62%
    12:00 +20°C° 0 mm 2 m/s 750 mmHg 58%
    13:00 +21°C° 0 mm 3 m/s 750 mmHg 54%
    14:00 +21°C° 0 mm 3 m/s 750 mmHg 58%
    15:00 +20°C° 0 mm 3 m/s 750 mmHg 61%
    16:00 +19°C° 0 mm 4 m/s 750 mmHg 64%
    17:00 +18°C° 0 mm 4 m/s 749 mmHg 69%
    18:00 +17°C° 0 mm 4 m/s 749 mmHg 75%
    19:00 +15°C° 0 mm 4 m/s 749 mmHg 80%
    20:00 +14°C° 0 mm 3 m/s 749 mmHg 85%
    21:00 +14°C° 0 mm 3 m/s 749 mmHg 90%
    22:00 +13°C° 0 mm 3 m/s 749 mmHg 95%
    23:00 +13°C° 0 mm 3 m/s 749 mmHg 96%

    18 Décembre, Lundi

    Heure Température Précipitation Vent Pression Humidité
    00:00 +13°C° 0 mm 3 m/s 748 mmHg 97%
    01:00 +13°C° 0 mm 3 m/s 747 mmHg 97%
    02:00 +13°C° 0 mm 3 m/s 747 mmHg 97%
    03:00 +13°C° 0 mm 3 m/s 747 mmHg 97%
    04:00 +13°C° 0 mm 2 m/s 746 mmHg 97%
    05:00 +15°C° 0 mm 2 m/s 746 mmHg 89%
    06:00 +17°C° 0 mm 2 m/s 746 mmHg 80%
    07:00 +18°C° 0 mm 2 m/s 745 mmHg 72%
    08:00 +23°C° 0 mm 2 m/s 745 mmHg 59%
    09:00 +26°C° 0 mm 2 m/s 745 mmHg 46%
    10:00 +29°C° 0 mm 2 m/s 744 mmHg 33%
    11:00 +31°C° 0 mm 3 m/s 744 mmHg 31%
    12:00 +34°C° 0 mm 3 m/s 743 mmHg 28%
    13:00 +35°C° 0 mm 4 m/s 743 mmHg 26%
    14:00 +34°C° 0 mm 3 m/s 742 mmHg 29%
    15:00 +34°C° 0 mm 3 m/s 742 mmHg 32%
    16:00 +33°C° 0 mm 3 m/s 741 mmHg 34%
    17:00 +30°C° 0 mm 3 m/s 741 mmHg 42%
    18:00 +28°C° 0 mm 3 m/s 741 mmHg 50%
    19:00 +26°C° 0 mm 2 m/s 741 mmHg 57%
    20:00 +25°C° 0 mm 2 m/s 741 mmHg 60%
    21:00 +24°C° 0 mm 2 m/s 740 mmHg 62%
    22:00 +23°C° 0 mm 2 m/s 740 mmHg 64%
    23:00 +23°C° 0 mm 2 m/s 740 mmHg 66%
    Voir plus